STARLINK-31282, 59307

Orbit data source: Space-Track

STARLINK-31282, 59307 is a payload satellite owned by SpaceX/Seattle (US) in LEO that was launched on Sun, 24 Mar 2024 UTC via an FALCON 9 launch vehicle from the Air Force Eastern Test Range (AFETR). Payload-class satellites include a variety of spacecraft equipped with specific instruments for various scientific and technological missions. These include communications satellites like Starlink; space stations such as the ISS; scientific satellites like the Hubble; Earth observation satellites from companies like Planet Labs, Umbra, and HawkEye 360; GPS; miniature CubeSats for education and research; and military/defense satellites.

Loading next visibility...
Identifier
59307, 2024-056M
Orbit
LEO
Country
Flag of USUS
Related business
Manufacturer
SpaceX/Seattle
Mission
Operational Commercial Communications
Bus & Motor
STARLINK V2M, Unknown motor
Mass
730 kg wet, ~700 kg dry
Launch date (UTC)
2024-03-24 (2 years ago)
Launch vehicle
FALCON 9
Launch site
Air Force Eastern Test Range (AFETR)
Object type
Payload
Rocket body
Debris
Shape & HBR
Box + 2 Pan, 17.7 m
Radar Cross Section
33.884 m², Large (>1 m²)

Expand to show TLE details & history
Last TLE update: 3 days ago

TLE from 3 days ago
0 STARLINK-31282
1 59307U 24056M   26169.98114165 -.00001206  00000-0 -34309-4 0  9994
2 59307  43.0053  18.8320 0001165 262.7673  97.3046 15.27567014126645
Epoch: 2026-06-18T23:32Z
TLE epoch observation values (Epoch: 2026-06-18T23:32:50.638Z)
Latitude
-0.00004°
Longitude
118.40429°
Altitude
482.966 km
Speed
7.626 km/s
True Right ascension
01h 15m 19s
True Declination
0° 00' 00"
Sunlit
Object was in daylight at epoch
Visualization orbit readout
Latitude
Unknown
Longitude
Unknown
Altitude
Unknown
Speed
Unknown
Apparent Right ascension
Unknown
Apparent Declination
Unknown
Sunlit
N/A
Visualization observer readout
Local Sidereal Time
21:26:29
Azimuth
Unknown
Elevation
Unknown
Doppler factor
Unknown
Orbital elements
Apogee altitude
485.832 km
Perigee altitude
484.233 km
Semi-major axis
6,863.169 km
Eccentricity
0.00012
Inclination
43.0053°
RAAN
18.832°
Arg. of periapsis
262.7673°
True anomaly
97.31784°
Mean anomaly
97.3046°
Eccentric anomaly
97.31122°
Mean motion
3.8173 °/min
Orbital period
94.31 mins
BSTAR
-0.000034309
Loading maneuver chart data...
Computing Atmospheric mass density...
Loading historical data...
Loading historical data...
Loading historical data...
Loading historical data...
Loading historical data...
Loading historical data...
Loading historical data...

Documentation

Showing up to 5 results
|